User: anonymous   Login
Location: Unspecified
(0.0000°N, 0.0000°E)
Time: 00:15:40
(UTC+00:00)
Language:

Kosmos-2100 - Orbit

View from above orbital plane
View from above orbital plane
View from above satellite
View from above satellite

Ground track
Ground track

The orbit data is extracted from the following two-line orbital elements,

1 20804U 90083A   21023.59772116  .00000038  00000-0  23782-4 0  9997
2 20804  82.9395 186.8558 0037006  11.8310  58.1855 13.74340829522544
Epoch (UTC): 23 January 2021 14:20:43
Eccentricity: 0.0037006
inclination: 82.9395°
perigee height: 957 km
apogee height: 1011 km
right ascension of ascending node: 186.8558°
argument of perigee: 11.8310°
revolutions per day: 13.74340829
mean anomaly at epoch: 58.1855°
orbit number at epoch: 52254

The dashed part of the orbit path shows where the satellite is in the earth's shadow,  

DLR